TimeMDT,TemperatureF,Dew PointF,Humidity,Sea Level PressureIn,VisibilityMPH,Wind Direction,Wind SpeedMPH,Gust SpeedMPH,PrecipitationIn,Events,Conditions,WindDirDegrees,DateUTC
12:53 AM,39.0,21.9,50,30.24,10.0,SE,8.1,-,N/A,,Clear,130,2011-10-19 06:53:00
1:53 AM,39.0,21.0,49,30.22,10.0,SE,10.4,-,N/A,,Clear,140,2011-10-19 07:53:00
2:53 AM,37.0,21.0,52,30.22,10.0,SE,9.2,-,N/A,,Clear,140,2011-10-19 08:53:00
3:53 AM,34.0,21.9,61,30.22,10.0,SE,8.1,-,N/A,,Clear,140,2011-10-19 09:53:00
5:53 AM,34.0,21.0,59,30.20,10.0,SE,8.1,-,N/A,,Clear,130,2011-10-19 11:53:00
6:53 AM,33.1,21.9,64,30.22,10.0,South,6.9,-,N/A,,Clear,170,2011-10-19 12:53:00
7:53 AM,34.0,21.0,59,30.22,10.0,SSE,5.8,-,N/A,,Clear,160,2011-10-19 13:53:00
10:53 AM,50.0,23.0,35,30.13,10.0,NW,4.6,-,N/A,,Clear,310,2011-10-19 16:53:00
11:53 AM,55.9,21.9,27,30.09,-9999.0,North,-9999.0,-,N/A,,Unknown,0,2011-10-19 17:53:00
12:53 PM,59.0,19.9,22,30.05,10.0,ENE,4.6,-,N/A,,Clear,60,2011-10-19 18:53:00
1:53 PM,62.1,19.0,19,29.99,10.0,Calm,Calm,-,N/A,,Clear,0,2011-10-19 19:53:00
2:53 PM,64.0,14.0,14,29.94,10.0,Calm,Calm,-,N/A,,Clear,0,2011-10-19 20:53:00
3:53 PM,66.9,18.0,15,29.92,10.0,NNW,8.1,-,N/A,,Clear,340,2011-10-19 21:53:00
4:53 PM,66.0,21.0,18,29.93,10.0,NNW,10.4,-,N/A,,Clear,340,2011-10-19 22:53:00
5:53 PM,62.1,19.0,19,29.95,10.0,NNW,6.9,-,N/A,,Clear,330,2011-10-19 23:53:00
6:53 PM,57.0,19.9,24,29.98,10.0,Calm,Calm,-,N/A,,Clear,0,2011-10-20 00:53:00
7:53 PM,48.0,24.1,39,30.02,10.0,South,5.8,-,N/A,,Clear,170,2011-10-20 01:53:00
8:53 PM,46.0,23.0,40,30.02,10.0,SE,9.2,-,N/A,,Clear,140,2011-10-20 02:53:00
9:53 PM,43.0,25.0,49,30.01,10.0,SSE,8.1,-,N/A,,Clear,150,2011-10-20 03:53:00
10:53 PM,42.1,23.0,47,30.01,10.0,ESE,5.8,-,N/A,,Clear,120,2011-10-20 04:53:00
11:53 PM,44.1,23.0,43,30.01,10.0,SSE,3.5,-,N/A,,Clear,150,2011-10-20 05:53:00